BCS728 EVRA-EKCH

Flight info

Callsign BCS728
Flight time 1h 10m
Altitude 32000
Route VALED DCT ADAXA DCT NINTA DCT KOLJA DCT ELVIX L975 TIDVU
Aircraft A306/H-SDE3FGHIRWY/LB1

Departure

Time 2026-05-06 17:31
Airport Riga International Airport (EVRA)

Arrival

Time 2026-05-06 18:42
Airport Copenhagen Kastrup Airport (EKCH)
Time Latitude Longitude Altitude Speed Heading
2026-05-06 16:50 56.93028 23.97775 50 ft 0 kts
2026-05-06 17:17 56.93026 23.97775 50 ft 2 kts
2026-05-06 17:17 56.93000 23.97774 50 ft 4 kts 354°
2026-05-06 17:18 56.92974 23.97783 46 ft 4 kts 340°
2026-05-06 17:18 56.92950 23.97805 50 ft 4 kts 318°
2026-05-06 17:18 56.92936 23.97840 47 ft 2 kts 276°
2026-05-06 17:18 56.92936 23.97843 50 ft 0 kts 275°
2026-05-06 17:21 56.92939 23.97778 50 ft 6 kts 275°
2026-05-06 17:21 56.92942 23.97710 50 ft 5 kts 275°
2026-05-06 17:22 56.92943 23.97656 47 ft 4 kts 261°
2026-05-06 17:22 56.92893 23.97598 50 ft 15 kts 188°
2026-05-06 17:22 56.92778 23.97577 48 ft 16 kts 185°
2026-05-06 17:22 56.92673 23.97560 49 ft 15 kts 185°
2026-05-06 17:23 56.92576 23.97544 45 ft 13 kts 185°
2026-05-06 17:23 56.92487 23.97530 50 ft 12 kts 185°
2026-05-06 17:23 56.92407 23.97513 50 ft 11 kts 188°
2026-05-06 17:23 56.92328 23.97494 48 ft 13 kts 186°
2026-05-06 17:24 56.92241 23.97478 50 ft 13 kts 186°
2026-05-06 17:24 56.92129 23.97462 50 ft 16 kts 185°
2026-05-06 17:24 56.92023 23.97445 50 ft 15 kts 184°
2026-05-06 17:24 56.91925 23.97437 50 ft 13 kts 183°
2026-05-06 17:25 56.91811 23.97419 50 ft 17 kts 185°
2026-05-06 17:25 56.91694 23.97400 48 ft 16 kts 185°
2026-05-06 17:25 56.91576 23.97381 49 ft 18 kts 185°
2026-05-06 17:25 56.91455 23.97361 50 ft 17 kts 185°
2026-05-06 17:26 56.91340 23.97342 50 ft 16 kts 186°
2026-05-06 17:26 56.91223 23.97322 50 ft 17 kts 185°
2026-05-06 17:26 56.91109 23.97303 50 ft 17 kts 185°
2026-05-06 17:26 56.90998 23.97269 50 ft 16 kts 204°
2026-05-06 17:27 56.90908 23.97184 50 ft 13 kts 196°
2026-05-06 17:27 56.90820 23.97162 48 ft 12 kts 185°
2026-05-06 17:27 56.90739 23.97149 50 ft 11 kts 185°
2026-05-06 17:27 56.90673 23.97108 48 ft 10 kts 220°
2026-05-06 17:28 56.90653 23.97064 50 ft 0 kts 241°
2026-05-06 17:30 56.90648 23.97044 50 ft 4 kts 241°
2026-05-06 17:30 56.90649 23.96942 49 ft 14 kts 276°
2026-05-06 17:30 56.90714 23.96844 49 ft 14 kts 359°
2026-05-06 17:30 56.90873 23.96868 48 ft 44 kts
2026-05-06 17:31 56.91412 23.96956 51 ft 109 kts
2026-05-06 17:31 56.92360 23.97111 50 ft 162 kts
2026-05-06 17:31 56.93558 23.97300 592 ft 174 kts
2026-05-06 17:31 56.94777 23.97419 1568 ft 172 kts
2026-05-06 17:32 56.95993 23.97402 2372 ft 183 kts
2026-05-06 17:32 56.97352 23.97359 2879 ft 205 kts
2026-05-06 17:32 56.98814 23.96809 3355 ft 231 kts 335°
2026-05-06 17:32 56.99894 23.94559 3954 ft 249 kts 295°
2026-05-06 17:33 57.00012 23.91391 4737 ft 255 kts 254°
2026-05-06 17:33 56.99060 23.88706 5706 ft 252 kts 217°
2026-05-06 17:33 56.97634 23.86908 6847 ft 245 kts 211°
2026-05-06 17:33 56.96220 23.85227 7982 ft 239 kts 213°
2026-05-06 17:34 56.94860 23.83497 9117 ft 236 kts 218°
2026-05-06 17:34 56.93700 23.81357 10041 ft 242 kts 228°
2026-05-06 17:34 56.92680 23.78803 10660 ft 255 kts 240°
2026-05-06 17:34 56.92165 23.75641 11356 ft 268 kts 262°
2026-05-06 17:35 56.92344 23.72093 11725 ft 293 kts 276°
2026-05-06 17:35 56.92738 23.68367 12010 ft 310 kts 273°
2026-05-06 17:35 56.92690 23.64359 12285 ft 321 kts 256°
2026-05-06 17:36 56.90844 23.56600 13093 ft 341 kts 242°
2026-05-06 17:36 56.89735 23.52748 13747 ft 343 kts 242°
2026-05-06 17:36 56.88628 23.48925 14331 ft 346 kts 240°
2026-05-06 17:36 56.87338 23.45180 14859 ft 350 kts 236°
2026-05-06 17:37 56.85922 23.41514 15415 ft 354 kts 234°
2026-05-06 17:37 56.84480 23.37837 15976 ft 357 kts 234°
2026-05-06 17:37 56.83040 23.34167 16519 ft 361 kts 234°
2026-05-06 17:37 56.81569 23.30409 17001 ft 366 kts 234°
2026-05-06 17:38 56.80079 23.26610 17616 ft 368 kts 234°
2026-05-06 17:38 56.78755 23.22604 18221 ft 371 kts 244°
2026-05-06 17:38 56.77976 23.18092 18693 ft 376 kts 256°
2026-05-06 17:38 56.77549 23.13358 19181 ft 380 kts 259°
2026-05-06 17:39 56.77174 23.08561 19645 ft 383 kts 259°
2026-05-06 17:39 56.76800 23.03794 20091 ft 385 kts 259°
2026-05-06 17:39 56.76411 22.98944 20539 ft 387 kts 258°
2026-05-06 17:39 56.76014 22.94055 20979 ft 390 kts 258°
2026-05-06 17:40 56.75610 22.89149 21411 ft 392 kts 258°
2026-05-06 17:40 56.75201 22.84215 21830 ft 395 kts 258°
2026-05-06 17:40 56.74786 22.79246 22258 ft 397 kts 258°
2026-05-06 17:40 56.74372 22.74318 22656 ft 399 kts 258°
2026-05-06 17:41 56.73946 22.69285 23080 ft 402 kts 258°
2026-05-06 17:41 56.73516 22.64220 23433 ft 405 kts 258°
2026-05-06 17:41 56.73080 22.59107 23777 ft 407 kts 258°
2026-05-06 17:41 56.72647 22.54060 24091 ft 409 kts 257°
2026-05-06 17:42 56.72204 22.48916 24408 ft 411 kts 257°
2026-05-06 17:42 56.71734 22.43747 24726 ft 413 kts 257°
2026-05-06 17:42 56.71226 22.38641 25020 ft 414 kts 256°
2026-05-06 17:42 56.70686 22.33463 25309 ft 416 kts 256°
2026-05-06 17:43 56.70135 22.28279 25614 ft 418 kts 256°
2026-05-06 17:43 56.69578 22.23067 25879 ft 420 kts 255°
2026-05-06 17:43 56.69021 22.17841 26155 ft 422 kts 256°
2026-05-06 17:43 56.68460 22.12575 26422 ft 423 kts 256°
2026-05-06 17:44 56.67898 22.07299 26690 ft 425 kts 255°
2026-05-06 17:44 56.67340 22.02065 26958 ft 427 kts 256°
2026-05-06 17:44 56.66771 21.96737 27138 ft 430 kts 256°
2026-05-06 17:44 56.66195 21.91373 27373 ft 432 kts 256°
2026-05-06 17:45 56.65617 21.86002 27618 ft 433 kts 256°
2026-05-06 17:45 56.65034 21.80612 27848 ft 435 kts 256°
2026-05-06 17:45 56.64448 21.75219 28078 ft 436 kts 256°
2026-05-06 17:45 56.63857 21.69810 28388 ft 435 kts 255°
2026-05-06 17:46 56.63268 21.64431 28744 ft 434 kts 255°
2026-05-06 17:46 56.62683 21.59116 29077 ft 433 kts 255°
2026-05-06 17:46 56.62089 21.53743 29431 ft 432 kts 255°
2026-05-06 17:46 56.61493 21.48375 29755 ft 432 kts 255°
2026-05-06 17:47 56.60900 21.43047 30158 ft 428 kts 256°
2026-05-06 17:47 56.60320 21.37780 30644 ft 423 kts 255°
2026-05-06 17:47 56.59731 21.32551 30901 ft 423 kts 255°
2026-05-06 17:47 56.59127 21.27278 30852 ft 431 kts 255°
2026-05-06 17:48 56.58520 21.21970 31024 ft 433 kts 255°
2026-05-06 17:48 56.57911 21.16634 31361 ft 431 kts 255°
2026-05-06 17:48 56.57304 21.11320 31665 ft 430 kts 255°
2026-05-06 17:48 56.56694 21.06000 31899 ft 430 kts 255°
2026-05-06 17:49 56.56090 21.00742 31936 ft 419 kts 255°
2026-05-06 17:49 56.55511 20.95695 31941 ft 408 kts 255°
2026-05-06 17:49 56.54349 20.85697 31935 ft 404 kts 255°
2026-05-06 17:50 56.53376 20.77419 31934 ft 404 kts 255°
2026-05-06 17:50 56.52005 20.65824 31943 ft 404 kts 255°
2026-05-06 17:51 56.51012 20.57504 31921 ft 410 kts 255°
2026-05-06 17:51 56.49807 20.47322 31924 ft 413 kts 255°
2026-05-06 17:52 56.48585 20.37209 31933 ft 409 kts 255°
2026-05-06 17:52 56.47367 20.27230 31930 ft 408 kts 255°
2026-05-06 17:53 56.46134 20.17173 31934 ft 408 kts 255°
2026-05-06 17:53 56.44907 20.07226 31931 ft 408 kts 255°
2026-05-06 17:54 56.43663 19.97203 31950 ft 408 kts 255°
2026-05-06 17:54 56.42400 19.87116 31934 ft 415 kts 255°
2026-05-06 17:55 56.41122 19.76966 31933 ft 417 kts 255°
2026-05-06 17:55 56.39824 19.66728 31934 ft 417 kts 255°
2026-05-06 17:56 56.38519 19.56506 31941 ft 417 kts 255°
2026-05-06 17:56 56.37210 19.46335 31936 ft 415 kts 255°
2026-05-06 17:57 56.35909 19.36291 31934 ft 412 kts 255°
2026-05-06 17:57 56.34594 19.26206 31927 ft 413 kts 255°
2026-05-06 17:58 56.33267 19.16102 31935 ft 413 kts 255°
2026-05-06 17:58 56.31934 19.06029 31936 ft 413 kts 255°
2026-05-06 17:59 56.30594 18.95963 31938 ft 413 kts 255°
2026-05-06 17:59 56.29305 18.85935 31946 ft 413 kts 256°
2026-05-06 18:00 56.28175 18.75782 31938 ft 413 kts 257°
2026-05-06 18:00 56.27074 18.65618 31944 ft 413 kts 257°
2026-05-06 18:01 56.25959 18.55545 31933 ft 411 kts 257°
2026-05-06 18:01 56.24821 18.45457 31948 ft 410 kts 257°
2026-05-06 18:02 56.23675 18.35425 31953 ft 409 kts 257°
2026-05-06 18:02 56.22474 18.25479 31929 ft 409 kts 255°
2026-05-06 18:03 56.21018 18.15599 31940 ft 409 kts 253°
2026-05-06 18:03 56.19493 18.05750 31946 ft 409 kts 253°
2026-05-06 18:04 56.17980 17.95910 31947 ft 409 kts 253°
2026-05-06 18:04 56.16485 17.86110 31939 ft 410 kts 253°
2026-05-06 18:05 56.14973 17.76239 31944 ft 410 kts 253°
2026-05-06 18:05 56.13453 17.66373 31945 ft 410 kts 253°
2026-05-06 18:06 56.11926 17.56518 31950 ft 410 kts 252°
2026-05-06 18:06 56.10386 17.46638 31952 ft 412 kts 252°
2026-05-06 18:07 56.08983 17.36694 31950 ft 412 kts 255°
2026-05-06 18:07 56.07653 17.26690 31956 ft 413 kts 254°
2026-05-06 18:08 56.06306 17.16757 31949 ft 413 kts 254°
2026-05-06 18:08 56.04933 17.06740 31950 ft 413 kts 254°
2026-05-06 18:09 56.03552 16.96746 31951 ft 413 kts 254°
2026-05-06 18:09 56.02170 16.86816 31952 ft 413 kts 254°
2026-05-06 18:10 56.00774 16.76852 31951 ft 413 kts 253°
2026-05-06 18:10 55.99369 16.66883 31953 ft 413 kts 253°
2026-05-06 18:11 55.97955 16.56923 31948 ft 413 kts 253°
2026-05-06 18:11 55.96540 16.47020 31945 ft 414 kts 253°
2026-05-06 18:12 55.95106 16.37039 31948 ft 414 kts 253°
2026-05-06 18:12 55.93666 16.27083 31948 ft 414 kts 253°
2026-05-06 18:13 55.92216 16.17123 31955 ft 414 kts 253°
2026-05-06 18:13 55.90770 16.07251 31954 ft 414 kts 253°
2026-05-06 18:14 55.89304 15.97307 31958 ft 414 kts 253°
2026-05-06 18:14 55.87832 15.87378 31952 ft 413 kts 253°
2026-05-06 18:15 55.86365 15.77548 31955 ft 413 kts 253°
2026-05-06 18:15 55.84878 15.67640 31958 ft 413 kts 253°
2026-05-06 18:16 55.83367 15.57645 31954 ft 424 kts 253°
2026-05-06 18:16 55.81808 15.47396 31957 ft 433 kts 253°
2026-05-06 18:17 55.80223 15.37028 31957 ft 434 kts 253°
2026-05-06 18:17 55.78642 15.26752 31841 ft 429 kts 253°
2026-05-06 18:18 55.77858 15.21674 31360 ft 422 kts 253°
2026-05-06 18:18 55.77088 15.16706 30859 ft 415 kts 253°
2026-05-06 18:18 55.76326 15.11807 30251 ft 405 kts 253°
2026-05-06 18:18 55.75582 15.07039 29659 ft 398 kts 253°
2026-05-06 18:19 55.74844 15.02321 29073 ft 394 kts 253°
2026-05-06 18:19 55.74112 14.97660 28549 ft 390 kts 253°
2026-05-06 18:19 55.73387 14.93052 28036 ft 385 kts 253°
2026-05-06 18:19 55.72674 14.88534 27527 ft 382 kts 253°
2026-05-06 18:20 55.71957 14.84006 26988 ft 379 kts 253°
2026-05-06 18:20 55.71244 14.79510 26468 ft 377 kts 253°
2026-05-06 18:20 55.70533 14.75046 25948 ft 375 kts 253°
2026-05-06 18:20 55.69824 14.70598 25446 ft 374 kts 254°
2026-05-06 18:21 55.69123 14.66220 24920 ft 370 kts 253°
2026-05-06 18:21 55.68422 14.61870 24452 ft 366 kts 254°
2026-05-06 18:21 55.67728 14.57528 23909 ft 366 kts 254°
2026-05-06 18:21 55.67029 14.53183 23366 ft 366 kts 254°
2026-05-06 18:22 55.66329 14.48851 22781 ft 365 kts 254°
2026-05-06 18:22 55.65635 14.44561 22240 ft 356 kts 254°
2026-05-06 18:22 55.64961 14.40411 21751 ft 348 kts 253°
2026-05-06 18:22 55.64292 14.36296 21224 ft 347 kts 253°
2026-05-06 18:23 55.63623 14.32195 20717 ft 346 kts 253°
2026-05-06 18:23 55.62961 14.28147 20214 ft 344 kts 253°
2026-05-06 18:23 55.62295 14.24081 19689 ft 343 kts 253°
2026-05-06 18:23 55.61630 14.20036 19170 ft 342 kts 253°
2026-05-06 18:24 55.60973 14.16045 18669 ft 334 kts 253°
2026-05-06 18:24 55.60335 14.12179 18187 ft 329 kts 253°
2026-05-06 18:24 55.59693 14.08301 17647 ft 329 kts 253°
2026-05-06 18:24 55.59044 14.04366 17128 ft 329 kts 254°
2026-05-06 18:25 55.58408 14.00538 16676 ft 327 kts 253°
2026-05-06 18:25 55.57760 13.96653 16097 ft 329 kts 254°
2026-05-06 18:25 55.57112 13.92780 15622 ft 326 kts 254°
2026-05-06 18:25 55.56469 13.88936 15154 ft 325 kts 254°
2026-05-06 18:26 55.55836 13.85162 14664 ft 324 kts 254°
2026-05-06 18:26 55.55188 13.81308 14162 ft 323 kts 254°
2026-05-06 18:26 55.54559 13.77570 13684 ft 321 kts 254°
2026-05-06 18:26 55.53923 13.73800 13172 ft 319 kts 254°
2026-05-06 18:27 55.53288 13.70056 12686 ft 316 kts 255°
2026-05-06 18:27 55.52659 13.66356 12206 ft 312 kts 255°
2026-05-06 18:27 55.52050 13.62740 11757 ft 309 kts 255°
2026-05-06 18:27 55.51431 13.59102 11285 ft 308 kts 253°
2026-05-06 18:28 55.50812 13.55487 10822 ft 308 kts 255°
2026-05-06 18:28 55.50194 13.51855 10324 ft 308 kts 254°
2026-05-06 18:28 55.49582 13.48256 10047 ft 296 kts 255°
2026-05-06 18:28 55.49031 13.45027 9981 ft 281 kts 254°
2026-05-06 18:29 55.48472 13.41759 9704 ft 278 kts 253°
2026-05-06 18:29 55.47901 13.38464 9163 ft 283 kts 253°
2026-05-06 18:29 55.47328 13.35140 8754 ft 282 kts 254°
2026-05-06 18:29 55.46760 13.31883 8379 ft 281 kts 254°
2026-05-06 18:30 55.46200 13.28585 7986 ft 280 kts 257°
2026-05-06 18:30 55.45863 13.25206 7766 ft 280 kts 265°
2026-05-06 18:30 55.45648 13.21820 7702 ft 282 kts 266°
2026-05-06 18:30 55.45447 13.18425 7593 ft 284 kts 266°
2026-05-06 18:31 55.45242 13.14969 7449 ft 283 kts 266°
2026-05-06 18:31 55.45032 13.11522 7316 ft 282 kts 266°
2026-05-06 18:31 55.44824 13.08127 7186 ft 282 kts 265°
2026-05-06 18:31 55.44612 13.04687 7036 ft 281 kts 265°
2026-05-06 18:32 55.44399 13.01262 6899 ft 281 kts 266°
2026-05-06 18:32 55.44186 12.97839 6763 ft 281 kts 265°
2026-05-06 18:32 55.44032 12.94415 6619 ft 280 kts 274°
2026-05-06 18:32 55.44395 12.91099 6499 ft 275 kts 292°
2026-05-06 18:33 55.45083 12.87983 6342 ft 274 kts 296°
2026-05-06 18:33 55.45839 12.84890 6203 ft 275 kts 299°
2026-05-06 18:33 55.46950 12.82176 6073 ft 273 kts 321°
2026-05-06 18:33 55.48577 12.80615 5939 ft 265 kts 348°
2026-05-06 18:34 55.50392 12.80519 5813 ft 261 kts 13°
2026-05-06 18:34 55.52121 12.81360 5690 ft 260 kts 20°
2026-05-06 18:34 55.53841 12.82380 5561 ft 260 kts 21°
2026-05-06 18:34 55.55551 12.83441 5423 ft 259 kts 22°
2026-05-06 18:35 55.57212 12.84604 5297 ft 259 kts 24°
2026-05-06 18:35 55.58890 12.85814 5172 ft 260 kts 25°
2026-05-06 18:35 55.60565 12.87034 4997 ft 258 kts 25°
2026-05-06 18:35 55.62207 12.88228 4749 ft 252 kts 25°
2026-05-06 18:36 55.63790 12.89384 4475 ft 247 kts 24°
2026-05-06 18:36 55.65363 12.90561 4217 ft 243 kts 25°
2026-05-06 18:36 55.66902 12.91701 3958 ft 239 kts 25°
2026-05-06 18:36 55.68429 12.92823 3697 ft 236 kts 23°
2026-05-06 18:37 55.70044 12.93293 3429 ft 238 kts 355°
2026-05-06 18:37 55.71104 12.92758 3254 ft 240 kts 334°
2026-05-06 18:37 55.72806 12.90317 2986 ft 233 kts 316°
2026-05-06 18:37 55.73919 12.88292 2784 ft 226 kts 314°
2026-05-06 18:38 55.74519 12.86791 2606 ft 226 kts 295°
2026-05-06 18:38 55.74750 12.84122 2388 ft 215 kts 260°
2026-05-06 18:38 55.74137 12.81838 2178 ft 199 kts 223°
2026-05-06 18:38 55.72994 12.80715 2055 ft 181 kts 191°
2026-05-06 18:39 55.71816 12.80295 2002 ft 172 kts 186°
2026-05-06 18:39 55.70622 12.79982 2009 ft 170 kts 185°
2026-05-06 18:39 55.69546 12.79208 1969 ft 171 kts 221°
2026-05-06 18:40 55.68830 12.75365 1656 ft 165 kts 233°
2026-05-06 18:40 55.67960 12.74198 1461 ft 159 kts 205°
2026-05-06 18:40 55.66999 12.73222 1223 ft 156 kts 208°
2026-05-06 18:40 55.66129 12.72188 1012 ft 144 kts 212°
2026-05-06 18:41 55.65397 12.71147 807 ft 132 kts 216°
2026-05-06 18:41 55.64686 12.70070 632 ft 136 kts 214°
2026-05-06 18:41 55.63968 12.68961 424 ft 137 kts 215°
2026-05-06 18:41 55.63257 12.67878 245 ft 134 kts 215°
2026-05-06 18:42 55.62565 12.66808 64 ft 133 kts 214°
2026-05-06 18:42 55.61917 12.65797 30 ft 95 kts 223°
2026-05-06 18:42 55.61587 12.65280 28 ft 40 kts 221°
2026-05-06 18:42 55.61393 12.64979 31 ft 34 kts 220°
2026-05-06 18:43 55.61271 12.64695 31 ft 23 kts 248°
2026-05-06 18:43 55.61224 12.64441 30 ft 21 kts 251°
2026-05-06 18:43 55.61188 12.64199 30 ft 19 kts 279°
2026-05-06 18:43 55.61279 12.64118 30 ft 16 kts 19°
2026-05-06 18:44 55.61373 12.64214 30 ft 15 kts 32°
2026-05-06 18:44 55.61460 12.64313 30 ft 14 kts 34°
2026-05-06 18:44 55.61539 12.64409 30 ft 13 kts 34°
2026-05-06 18:44 55.61615 12.64495 30 ft 13 kts 32°
2026-05-06 18:45 55.61706 12.64599 30 ft 18 kts 33°
2026-05-06 18:45 55.61810 12.64719 30 ft 17 kts 33°
2026-05-06 18:45 55.61908 12.64832 30 ft 17 kts 33°
2026-05-06 18:45 55.61999 12.64943 29 ft 15 kts 50°
2026-05-06 18:46 55.61979 12.65100 29 ft 14 kts 122°
2026-05-06 18:46 55.61929 12.65239 28 ft 13 kts 122°
2026-05-06 18:46 55.61884 12.65360 28 ft 3 kts 123°
2026-05-06 18:46 55.61884 12.65361 28 ft 0 kts 123°
2026-05-06 18:47 55.61880 12.65370 26 ft 6 kts 123°
2026-05-06 18:48 55.61840 12.65478 29 ft 11 kts 123°
2026-05-06 18:48 55.61803 12.65575 30 ft 9 kts 124°
2026-05-06 18:48 55.61759 12.65691 31 ft 12 kts 124°
2026-05-06 18:48 55.61709 12.65827 32 ft 16 kts 123°
2026-05-06 18:49 55.61655 12.65996 32 ft 15 kts 111°
2026-05-06 18:49 55.61643 12.66177 31 ft 15 kts 81°
2026-05-06 18:49 55.61693 12.66335 30 ft 15 kts 43°
2026-05-06 18:49 55.61779 12.66407 30 ft 14 kts 12°
2026-05-06 18:50 55.61845 12.66488 30 ft 11 kts 75°
2026-05-06 18:50 55.61867 12.66679 30 ft 17 kts 79°
2026-05-06 18:50 55.61889 12.66878 30 ft 16 kts 79°
2026-05-06 18:50 55.61861 12.66975 30 ft 9 kts 159°
2026-05-06 18:51 55.61805 12.66996 30 ft 8 kts 168°
2026-05-06 18:51 55.61746 12.67016 30 ft 10 kts 168°
2026-05-06 18:51 55.61709 12.67047 30 ft 5 kts 120°
2026-05-06 18:51 55.61710 12.67122 30 ft 7 kts 79°
2026-05-06 18:52 55.61715 12.67169 30 ft 3 kts 79°
2026-05-06 18:52 55.61718 12.67195 30 ft 0 kts 79°